User: anonymous   Login
Location: Oshawa
(43.9000°N, 78.8670°W)
Time: 07:34:08
(UTC-04:00)
Language:

Explorer 11/Cluster Stage 4 - Orbit

View from above orbital plane
View from above orbital plane
View from above satellite
View from above satellite

Ground track
Ground track

The orbit data is extracted from the following two-line orbital elements,

1 00107U 61013A   16180.14827210  .00000465  00000-0  42163-4 0  9995
2 00107  28.7882  86.9993 0550956 161.1970 200.9827 14.07913264761126
Epoch (UTC): 28 June 2016 03:33:30
Eccentricity: 0.0550956
inclination: 28.7882°
perigee height: 467 km
apogee height: 1265 km
right ascension of ascending node: 86.9993°
argument of perigee: 161.1970°
revolutions per day: 14.07913264
mean anomaly at epoch: 200.9827°
orbit number at epoch: 76112

The dashed part of the orbit path shows where the satellite is in the earth's shadow,  

DLR